Location: Alsip
(41.6689°N, 87.7387°W)
Time: 14:20:33
(UTC+00:00)

COSMOS 2455 - Pass Details

Date: 14 July 2020
Orbit: 898 x 911 km, 67.1° (Epoch: 05 August)

Event Time Altitude Azimuth Distance (km) Brightness Sun altitude
Rises 03:21:43 0° 336° (NNW) 3,550 7.5 -17.2°
Reaches altitude 10° 03:24:28 10° 345° (NNW) 2,606 6.3 -17.6°
Maximum altitude 03:30:00 36° 51° (NE) 1,417 3.9 -18.2°
Enters shadow 03:33:19 21° 102° (ESE) 1,932 4.1 -18.5°
